Find Starlink 5498

NORAD ID: 55633 Int'l Des: 2023-021 Owner: SPXS Country: US Constellation: starlink operational
LEOCIRCULAR

实时位置

正在加载3D地球...

关于 Starlink 5498

正在加载描述...

即将过境

Passes for default location (London). Set your location on the main map for personalized predictions.

高度历史

Loading altitude history...

两行轨道根数

1 55633U 23021F 26122.26483926 -.00001544 00000-0 -12159-3 0 9990
2 55633 70.0003 69.3596 0003833 252.6576 107.4164 14.98342966176326
Epoch: May 2, 2026 • Age: 12 hours

当前状态

高度 574.2 km
速度 7.58 km/s
星下点 19.96°N, 105.71°E
发射日期 Feb 17, 2023
运行时间 3.2 years
类型 internet

技术详情

分类 Payload
质量 305.00 kg
干质量 290.00 kg
总质量 305.00 kg
长度 0.20 m
直径 2.80 m
跨度 9.00 m
形状 Box + pan
制造商 SPXS
平台类型 Starlink
阶段状态 In Orbit
所有者/国家 SPXS/US

Most Searched